Weather in Verkhnekazymsky

Russia / Khanty-Mansi Autonomous Okrug — Yugra     63°49′34″N   67°46′44″E
temp.,
°C
wind,
m/s
gust,
m/s
humid.,
%
clouds,
%
prec.,
mm/h
press.,
hPa
HPBL,
m
21 june, mon
mon2123:00+7n71385100 0.1 1016556
02:00+7n51080100 0.4 1018653
05:00+7nw368599 0.4 1019332
08:00+10nnw34585 0.0 1020827
11:00+13nw444064 0.0 10191865
14:00+15nnw333487 0.0 10182218
17:00+16nnw233394 0.0 10182214
20:00+14n2447100 0.0 1018210
22 june, tue
tue2223:00+9n2260100 0.0 101813
02:00+8sw0165100 0.0 101810
05:00+10wnw2261100 0.0 1018103
08:00+13nw2249100 0.0 1018459
11:00+14nnw4348100 0.0 10181686
14:00+15n344599 0.1 10181915
17:00+15ne5644100 0.1 10202024
20:00+13ne464821 0.0 1021949
23 june, wed
wed2323:00+10nne2263100 0.0 102225
02:00+6nne336658 0.0 102338
05:00+10n265897 0.0 1024258
08:00+14nne36415 0.0 10241690
11:00+16n453515 0.0 10242029
14:00+18nne343193 0.0 10222180
17:00+19nne332926 0.0 10222193
20:00+17ene344376 0.0 1022111
24 june, thu
thu2423:00+10ese335628 0.0 102127
02:00+9s236054 0.0 102128
05:00+10s366276 0.0 1020162
08:00+13ssw3555100 0.0 1018234
11:00+18ssw4540100 0.0 1016590
14:00+15s3555100 0.1 1015121
17:00+11s4893100 3.4 1014266
20:00+11sse4996100 4.7 1012349
25 june, fri
fri2523:00+11se3797100 5.7 1011272
02:00+11se3797100 0.1 1009276
05:00+12ese3496100 0.1 1009234
08:00+14se2390100 0.0 1009412
11:00+14ese228999 0.1 1009299
14:00+15ese2288100 0.0 1010320
17:00+15e1187100 0.0 1011283
20:00+14ne1192100 0.0 101147